Terug naar catalogus

DMSP 5D-2 F13 DEB

ActiefSSO
NORAD 40404·DEBRIS·🇺🇸 United States

Gelanceerd Mar 24, 1995 vanaf Vandenberg Space Force Base

Loading…

Volgende Passages (komende 24 uur)

TLE

VersSource: Space-Track

Epoch: Sep 13, 2026, 18:54 UTC

1 40404U 95015R   26256.78773737  .00000268  00000-0  14965-3 0  9996
2 40404  98.7880 272.1160 0004737 241.9101 118.1596 14.18993726597240

Volg DMSP 5D-2 F13 DEB in realtime met AllMySat

Download on the App Store